Weather History for KCXY - December, 2012

Change the Weather History Date:

Wednesday, December 26, 2012

  Actual Average Record
Temperature  
Mean Temperature 32 °F -  
Max Temperature 36 °F 36 °F 66 °F (1889)
Min Temperature 28 °F 23 °F 0 °F (1983)
Degree Days  
Heating Degree Days 33    
Moisture  
Dew Point 26 °F    
Average Humidity 84    
Maximum Humidity 93    
Minimum Humidity 69    
Precipitation  
Precipitation 0.51 in - - ()
Sea Level Pressure  
Sea Level Pressure 29.89 in    
Wind  
Wind Speed 9 mph (ENE)    
Max Wind Speed 17 mph    
Max Gust Speed 25 mph    
Visibility 5 miles    
Events Fog , Rain , Snow    
Averages and records for this station are not official NWS values.
T = Trace of Precipitation, MM = Missing Value Source: NWS Daily Summary

Daily Weather History Graph

Daily Weather History Graph

Search for Another Location

Airport or City:

Trip Planner

Search our weather history database for the weather conditions in past years. The results will help you decide how hot, cold, wet, or windy it might be!

Date:

Astronomy

Dec. 26, 2012 Rise Set
Actual Time 7:28 AM EST 4:47 PM EST
Civil Twilight 6:58 AM EST 5:18 PM EST
Nautical Twilight 6:23 AM EST 5:52 PM EST
Astronomical Twilight 5:50 AM EST 6:25 PM EST
Moon 3:39 PM EST (12/26) 5:50 AM EST (12/26)
Length of Visible Light 10h 20m
Length of Day
9h 19m
Waxing Gibbous, 97% of the Moon is Illuminated
Dec 26
Waxing Gibbous
Dec 28
Full
Jan 4
Last Quarter
Jan 11
New
Jan 18
First Quarter

Hourly Weather History & Observations

Time (EST) Temp. Windchill Dew Point Humidity Pressure Visibility Wind Dir Wind Speed Gust Speed Precip Events Conditions
12:56 AM 30.9 °F 26.2 °F 21.9 °F 69% 30.29 in 10.0 mi NNE 4.6 mph - N/A   Clear
1:36 AM 30.2 °F 25.4 °F 21.2 °F 69% 30.28 in 10.0 mi NNE 4.6 mph - N/A   Mostly Cloudy
1:56 AM 30.0 °F 26.5 °F 21.0 °F 69% 30.30 in 10.0 mi ENE 3.5 mph - N/A   Overcast
2:56 AM 30.0 °F 26.5 °F 21.0 °F 69% 30.27 in 10.0 mi East 3.5 mph - N/A   Overcast
4:56 AM 28.9 °F 21.9 °F 19.9 °F 69% 30.22 in 10.0 mi ENE 6.9 mph - N/A   Overcast
5:56 AM 28.9 °F - 21.0 °F 72% 30.24 in 10.0 mi Calm Calm - N/A   Overcast
6:56 AM 28.9 °F 23.9 °F 21.0 °F 72% 30.23 in 10.0 mi East 4.6 mph - N/A   Overcast
7:56 AM 30.0 °F 23.2 °F 21.0 °F 69% 30.21 in 10.0 mi ENE 6.9 mph - N/A   Overcast
8:56 AM 30.0 °F 21.1 °F 21.9 °F 72% 30.16 in 10.0 mi ENE 10.4 mph - N/A   Overcast
9:56 AM 30.0 °F 20.0 °F 21.9 °F 72% 30.14 in 10.0 mi East 12.7 mph - N/A   Overcast
10:41 AM 30.2 °F 21.9 °F 23.0 °F 75% 30.12 in 2.5 mi East 9.2 mph - 0.00 in Snow Light Snow
10:52 AM 28.4 °F 19.1 °F 24.8 °F 86% 30.12 in 0.8 mi East 10.4 mph - 0.00 in Snow Light Snow
10:56 AM 28.9 °F 19.8 °F 24.1 °F 82% 30.13 in 0.8 mi ENE 10.4 mph - 0.00 in Snow Light Snow
11:11 AM 28.4 °F 19.7 °F 24.8 °F 86% 30.08 in 0.8 mi ENE 9.2 mph - 0.01 in Snow Light Snow
11:56 AM 28.0 °F 20.0 °F 25.0 °F 88% 30.05 in 0.8 mi ENE 8.1 mph - 0.04 in Snow Light Snow
12:37 PM 28.4 °F 17.5 °F 24.8 °F 86% 29.99 in 0.5 mi East 13.8 mph - 0.02 in Fog , Snow Snow
12:56 PM 28.0 °F 18.1 °F 25.0 °F 88% 29.99 in 0.2 mi East 11.5 mph - 0.04 in Fog , Snow Heavy Snow
1:49 PM 28.4 °F 17.0 °F 24.8 °F 86% 29.90 in 0.5 mi ENE 15.0 mph - 0.06 in Fog , Snow Snow
1:56 PM 28.0 °F 18.1 °F 25.0 °F 88% 29.90 in 0.2 mi ENE 11.5 mph - 0.07 in Fog , Snow Snow
2:08 PM 28.4 °F 18.5 °F 24.8 °F 86% 29.85 in 0.2 mi East 11.5 mph - 0.01 in Fog , Snow Heavy Snow
2:22 PM 28.4 °F 17.5 °F 24.8 °F 86% 29.84 in 1.0 mi East 13.8 mph - 0.03 in Snow Light Snow
2:27 PM 28.4 °F 17.5 °F 24.8 °F 86% 29.84 in 2.0 mi East 13.8 mph 20.7 mph 0.03 in Snow Light Snow
2:36 PM 28.4 °F 17.0 °F 24.8 °F 86% 29.83 in 6.0 mi East 15.0 mph - 0.03 in Snow Light Snow
2:50 PM 28.4 °F 18.0 °F 24.8 °F 86% 29.82 in 1.8 mi East 12.7 mph 25.3 mph 0.04 in Snow Light Snow
2:56 PM 28.0 °F 15.7 °F 25.0 °F 88% 29.83 in 3.0 mi East 17.3 mph 21.9 mph 0.05 in Snow Light Snow
3:04 PM 28.4 °F 17.0 °F 24.8 °F 86% 29.81 in 3.0 mi East 15.0 mph - 0.00 in Snow Light Snow
3:27 PM 28.4 °F 18.5 °F 26.6 °F 93% 29.80 in 3.0 mi ENE 11.5 mph - 0.04 in Rain Light Freezing Rain
3:45 PM 30.2 °F 20.2 °F 26.6 °F 86% 29.76 in 3.0 mi ENE 12.7 mph 21.9 mph 0.06 in Rain Light Freezing Rain
3:56 PM 30.0 °F 19.1 °F 27.0 °F 88% 29.76 in 3.0 mi ENE 15.0 mph 23.0 mph 0.06 in Rain Light Freezing Rain
4:08 PM 30.2 °F 20.2 °F 26.6 °F 86% 29.74 in 2.5 mi ENE 12.7 mph 18.4 mph 0.01 in Rain Light Freezing Rain
4:18 PM 30.2 °F 19.8 °F 26.6 °F 86% 29.73 in 3.0 mi ENE 13.8 mph - 0.02 in Rain Light Freezing Rain
4:28 PM 30.2 °F 19.8 °F 28.4 °F 93% 29.71 in 3.0 mi ENE 13.8 mph 20.7 mph 0.03 in Rain Light Freezing Rain
4:35 PM 30.2 °F 19.8 °F 28.4 °F 93% 29.72 in 2.5 mi ENE 13.8 mph - 0.04 in Rain Light Freezing Rain
4:45 PM 30.2 °F 19.3 °F 28.4 °F 93% 29.71 in 4.0 mi East 15.0 mph 19.6 mph 0.07 in Rain Light Freezing Rain
4:56 PM 30.9 °F 21.2 °F 28.9 °F 92% 29.71 in 3.0 mi ENE 12.7 mph - 0.11 in Rain Light Freezing Rain
5:21 PM 32.0 °F 22.5 °F 30.2 °F 93% 29.68 in 4.0 mi East 12.7 mph 17.3 mph 0.03 in Rain Light Freezing Rain
5:28 PM 33.8 °F 23.9 °F 30.2 °F 87% 29.66 in 3.0 mi ENE 15.0 mph 23.0 mph 0.06 in Rain Light Freezing Rain
5:44 PM 33.8 °F 24.8 °F 30.2 °F 87% 29.63 in 5.0 mi ENE 12.7 mph 21.9 mph 0.09 in Rain Rain
5:56 PM 34.0 °F 26.6 °F 30.9 °F 89% 29.62 in 5.0 mi ENE 9.2 mph 24.2 mph 0.12 in Rain Heavy Rain
6:56 PM 34.0 °F 26.0 °F 30.9 °F 89% 29.60 in 10.0 mi ENE 10.4 mph - 0.00 in Rain Light Rain
7:56 PM 35.1 °F 29.3 °F 32.0 °F 89% 29.58 in 10.0 mi NE 6.9 mph - 0.02 in Rain Light Rain
8:56 PM 35.1 °F 27.9 °F 32.0 °F 89% 29.54 in 10.0 mi NE 9.2 mph - 0.00 in   Overcast
9:56 PM 36.0 °F 28.5 °F 32.0 °F 86% 29.52 in 10.0 mi NE 10.4 mph - N/A   Overcast
10:56 PM 36.0 °F 28.0 °F 32.0 °F 86% 29.49 in 10.0 mi NE 11.5 mph - 0.00 in Rain Light Rain
11:56 PM 36.0 °F 29.6 °F 32.0 °F 86% 29.47 in 8.0 mi NE 8.1 mph 16.1 mph 0.00 in Rain Light Rain